This demonstration page uses our WeatherBlox Daily Observations layout. Learn more.

41.55636, -103.73856

Hourly Observations for December 27, 2015

Temp ( °F °C ) Dew Point ( °F °C ) Humidity (%) Winds ( mph kmh ) Pressure ( in mb ) Visibility ( mi km ) Precip ( " mm )
12:53 am 00:53 Clear 3 -16 0 -18 85 85 NW 13 20 30.89 1046 10 16.09344 0 0
1:53 am 01:53 Clear 0 -18 -2 -19 92 92 NW 12 19 30.92 1047 10 16.09344 0 0
2:53 am 02:53 Clear 1 -17 -2 -19 85 85 W 8 13 30.86 1045 10 16.09344 0 0
3:53 am 03:53 Clear 0 -18 -4 -20 84 84 NW 9 15 30.83 1044 10 16.09344 0 0
4:53 am 04:53 Clear -2 -19 -8 -22 77 77 NNW 7 11 30.86 1045 10 16.09344 0 0
5:53 am 05:53 Clear 0 -18 -6 -21 78 78 Calm 30.92 1047 10 16.09344 0 0
6:53 am 06:53 Clear -4 -20 -9 -23 77 77 N 10 17 30.92 1047 10 16.09344 0 0
7:53 am 07:53 Sunny -4 -20 -9 -23 77 77 NNW 6 9 30.89 1046 10 16.09344 0 0
8:53 am 08:53 Sunny 0 -18 -6 -21 78 78 Calm 30.83 1044 10 16.09344 0 0
9:53 am 09:53 Sunny 0 -18 -6 -21 78 78 NNW 7 11 30.83 1044 10 16.09344 0 0
10:53 am 10:53 Sunny 7 -14 0 -18 72 72 Calm 30.74 1041 10 16.09344 0 0
11:53 am 11:53 Sunny 10 -12 1 -17 67 67 Calm 30.68 1039 10 16.09344 0 0
12:53 pm 12:53 Sunny 10 -12 3 -16 72 72 E 5 7 30.65 1038 10 16.09344 0 0
1:53 pm 13:53 Sunny 10 -12 3 -16 72 72 SE 7 11 30.62 1037 10 16.09344 0 0
2:53 pm 14:53 Sunny 10 -12 1 -17 67 67 ESE 9 15 30.62 1037 10 16.09344 0 0
3:53 pm 15:53 Sunny 10 -12 1 -17 67 67 SE 8 13 30.59 1036 10 16.09344 0 0
4:53 pm 16:53 Clear 3 -16 0 -18 85 85 E 5 7 30.62 1037 10 16.09344 0 0
5:53 pm 17:53 Clear 1 -17 -2 -19 85 85 E 8 13 30.65 1038 10 16.09344 0 0
6:53 pm 18:53 Clear 5 -15 0 -18 78 78 E 12 19 30.59 1036 10 16.09344 0 0
7:53 pm 19:53 Clear 3 -16 0 -18 85 85 E 7 11 30.59 1036 10 16.09344 0 0
8:53 pm 20:53 Clear 1 -17 -2 -19 85 85 Calm 30.56 1035 10 16.09344 0 0
9:53 pm 21:53 Clear 3 -16 0 -18 85 85 SE 9 15 30.53 1034 10 16.09344 0 0
10:53 pm 22:53 Clear 1 -17 0 -18 92 92 ESE 12 19 30.53 1034 10 16.09344 0 0
11:53 pm 23:53 Clear 1 -17 0 -18 92 92 ESE 10 17 30.53 1034 10 16.09344 0 0

Powered by AerisWeather